Location: Unspecified
(0.0000°N, 0.0000°E)
Time: 15:50:07
(UTC+02:00)

SJ-6B - Visible Passes

Search period start: 19 September 2014 00:00
Search period end: 29 September 2014 00:00
Orbit: 521 x 597 km, 97.8° (Epoch: 18 September)

Date Brightness Start Highest point End Pass type
(mag) Time Alt. Az. Time Alt. Az. Time Alt. Az.
19 Sep 5.6 07:17:49 10° NE 07:21:03 23° ESE 07:24:14 10° SSE visible
19 Sep 6.3 20:53:17 10° WSW 20:54:41 12° WSW 20:56:05 10° W visible
20 Sep 5.7 07:16:22 10° NE 07:19:30 22° ESE 07:22:35 10° SSE visible
20 Sep 6.3 20:51:26 10° SW 20:53:08 12° WSW 20:54:49 10° WNW visible
21 Sep 5.9 07:14:55 10° NE 07:17:57 21° ESE 07:20:56 10° SSE visible
21 Sep 6.2 20:49:39 10° SW 20:51:34 13° WSW 20:53:30 10° WNW visible
22 Sep 5.9 07:13:28 10° NE 07:16:23 20° ESE 07:19:16 10° SSE visible
22 Sep 6.2 20:47:53 10° SW 20:50:01 14° WSW 20:52:09 10° WNW visible
23 Sep 5.9 07:12:02 10° NE 07:14:50 19° ESE 07:17:35 10° SSE visible
23 Sep 6.1 20:46:09 10° SW 20:48:27 15° WSW 20:50:47 10° WNW visible
24 Sep 6.0 07:10:36 10° ENE 07:13:16 18° ESE 07:15:53 10° SE visible
24 Sep 6.1 20:44:25 10° SW 20:46:53 16° WSW 20:49:23 10° WNW visible
25 Sep 6.0 07:09:10 10° ENE 07:11:41 16° ESE 07:14:11 10° SE visible
25 Sep 6.1 20:42:42 10° SW 20:45:19 17° WSW 20:47:58 10° WNW visible
26 Sep 6.1 07:07:45 10° ENE 07:10:07 16° ESE 07:12:27 10° SE visible
26 Sep 6.0 20:40:59 10° SW 20:43:44 18° WSW 20:46:32 10° WNW visible
27 Sep 6.1 07:06:21 10° ENE 07:08:32 15° ESE 07:10:42 10° SE visible
27 Sep 6.0 20:39:17 10° SSW 20:42:10 19° WSW 20:45:05 10° NW visible
28 Sep 6.2 07:04:57 10° ENE 07:06:57 14° ESE 07:08:55 10° SE visible
28 Sep 5.9 20:37:35 10° SSW 20:40:35 20° WSW 20:43:37 10° NW visible
